[TLELIST] Archives

 

[TLELIST] Current TLEs

June 22nd 2026 PDT

0 HST 1 20580U 90037B 26171.07700591 .00005529 00000-0 17304-3 0 9999 2 20580 28.4722 60.8244 0001640 173.2571 186.8048 15.30775367789017 0 ISS (ZARYA) 1 25544U 98067A 26172.76913116 .00009060 00000-0 17028-3 0 9998 2 25544 51.6326 277.4139 0004499 214.6152 145.4544 15.49357580572463 0 CXO 1 25867U 99040B 26172.02247085 .00000453 00000-0 00000-0 0 9998 2 25867 56.2474 116.4966 7828330 310.2765 0.2930 0.37807394 17335 ...Continue Reading

[TLELIST] Current TLEs

June 21st 2026 PDT

0 HST 1 20580U 90037B 26171.07700591 .00005529 00000-0 17304-3 0 9999 2 20580 28.4722 60.8244 0001640 173.2571 186.8048 15.30775367789017 0 ISS (ZARYA) 1 25544U 98067A 26171.41461525 .00008813 00000-0 16600-3 0 9991 2 25544 51.6327 284.1189 0004557 208.5194 151.5545 15.49333088572250 0 CXO 1 25867U 99040B 26172.02247085 .00000453 00000-0 00000-0 0 9998 2 25867 56.2474 116.4966 7828330 310.2765 0.2930 0.37807394 17335 ...Continue Reading

[TLELIST] Current TLEs

June 20th 2026 PDT

0 HST 1 20580U 90037B 26171.07700591 .00005529 00000-0 17304-3 0 9999 2 20580 28.4722 60.8244 0001640 173.2571 186.8048 15.30775367789017 0 ISS (ZARYA) 1 25544U 98067A 26171.15661001 .00008669 00000-0 16345-3 0 9998 2 25544 51.6329 285.3962 0004555 207.7610 152.3136 15.49327998572210 0 CXO 1 25867U 99040B 26172.02247085 .00000453 00000-0 00000-0 0 9998 2 25867 56.2474 116.4966 7828330 310.2765 0.2930 0.37807394 17335 ...Continue Reading

[TLELIST] Current TLEs

June 19th 2026 PDT

0 HST 1 20580U 90037B 26170.09908245 .00005359 00000-0 16756-3 0 9997 2 20580 28.4721 67.5085 0001724 162.4358 197.6298 15.30765373788864 0 ISS (ZARYA) 1 25544U 98067A 26170.06007799 .00009022 00000-0 16988-3 0 9992 2 25544 51.6331 290.8234 0004653 203.3119 156.7659 15.49309015572040 0 CXO 1 25867U 99040B 26172.02247085 .00000453 00000-0 00000-0 0 9998 2 25867 56.2474 116.4966 7828330 310.2765 0.2930 0.37807394 17335 ...Continue Reading

[TLELIST] Current TLEs

June 18th 2026 PDT

0 HST 1 20580U 90037B 26169.12115247 .00005032 00000-0 15694-3 0 9999 2 20580 28.4721 74.1921 0001767 152.2420 207.8270 15.30755230788710 0 ISS (ZARYA) 1 25544U 98067A 26169.15704105 .00009674 00000-0 18166-3 0 9998 2 25544 51.6334 295.2921 0004743 200.3344 159.7456 15.49293017571908 0 CXO 1 25867U 99040B 26172.02247085 .00000453 00000-0 00000-0 0 9998 2 25867 56.2474 116.4966 7828330 310.2765 0.2930 0.37807394 17335 ...Continue Reading

[TLELIST] Current TLEs

June 17th 2026 PDT

0 HST 1 20580U 90037B 26168.14321654 .00005620 00000-0 17616-3 0 9990 2 20580 28.4720 80.8753 0001816 141.8279 218.2446 15.30747004788561 0 ISS (ZARYA) 1 25544U 98067A 26168.18949189 .00009113 00000-0 17172-3 0 9997 2 25544 51.6332 300.0813 0004737 195.1146 164.9702 15.49273435571752 0 CXO 1 25867U 99040B 26169.37713324 .00000529 00000-0 00000-0 0 9990 2 25867 56.2189 116.5542 7835469 310.3049 0.1821 0.37804062 17322 ...Continue Reading

[TLELIST] Current TLEs

June 17th 2026 PDT

0 HST 1 20580U 90037B 26168.14321654 .00005620 00000-0 17616-3 0 9990 2 20580 28.4720 80.8753 0001816 141.8279 218.2446 15.30747004788561 0 ISS (ZARYA) 1 25544U 98067A 26168.18949189 .00009113 00000-0 17172-3 0 9997 2 25544 51.6332 300.0813 0004737 195.1146 164.9702 15.49273435571752 0 CXO 1 25867U 99040B 26169.37713324 .00000529 00000-0 00000-0 0 9990 2 25867 56.2189 116.5542 7835469 310.3049 0.1821 0.37804062 17322 ...Continue Reading

[TLELIST] Current TLEs

June 16th 2026 PDT

0 HST 1 20580U 90037B 26167.16527473 .00005381 00000-0 16841-3 0 9991 2 20580 28.4719 87.5586 0001853 131.7056 228.3698 15.30736864788416 0 ISS (ZARYA) 1 25544U 98067A 26167.09292088 .00007536 00000-0 14355-3 0 9992 2 25544 51.6337 305.5091 0004806 191.3253 168.7628 15.49253146571586 0 CXO 1 25867U 99040B 26169.37713324 .00000529 00000-0 00000-0 0 9990 2 25867 56.2189 116.5542 7835469 310.3049 0.1821 0.37804062 17322 ...Continue Reading

[TLELIST] Current TLEs

June 15th 2026 PDT

0 HST 1 20580U 90037B 26166.12212988 .00005845 00000-0 18362-3 0 9993 2 20580 28.4718 94.6872 0001878 120.6716 239.4066 15.30726834788259 0 ISS (ZARYA) 1 25544U 98067A 26166.18985271 .00007715 00000-0 14683-3 0 9997 2 25544 51.6338 309.9786 0004835 187.9159 172.1754 15.49238068571444 0 CXO 1 25867U 99040B 26166.73124906 .00000579 00000-0 00000-0 0 9994 2 25867 56.1776 116.6293 7842889 310.3072 0.0447 0.37804362 17312 ...Continue Reading

[TLELIST] Current TLEs

June 14th 2026 PDT

0 HST 1 20580U 90037B 26165.14417512 .00006344 00000-0 19999-3 0 9996 2 20580 28.4715 101.3706 0001912 110.8714 249.2086 15.30716351788104 0 ISS (ZARYA) 1 25544U 98067A 26165.09325831 .00008623 00000-0 16324-3 0 9999 2 25544 51.6335 315.4063 0004936 183.6835 176.4118 15.49219019571274 0 CXO 1 25867U 99040B 26166.73124906 .00000579 00000-0 00000-0 0 9994 2 25867 56.1776 116.6293 7842889 310.3072 0.0447 0.37804362 17312 ...Continue Reading
  • This mailing list is a public mailing list - anyone may join or leave, at any time.
  • This mailing list is announce-only.

International Space Station (ISS) / Hubble Space Telescope (HST) / Chandra X-Ray Observatory Orbital Data via EMAIL

Privacy Policy:

Private list